Centerville Municipal Airport
Sunday 1:55 PM
Temperature73° (73°/55°)
Dew Point54°
Relative Humidity50
%
Visibility10
mi
Pressure1025.7
mb
Wind DirectionESE
120°
Wind Speed7
mph
Precipitation Today0.00"

Last 30 Observations

Time PresWx Temp DP Feels RH% Vsby Pressure Ceiling Direction Speed 1h Precip
1:55 PM 10
mi
0.00"
1:35 PM 72° 54° 53
%
10
mi
1026.1
mb
Calm 0.00"
1:15 PM 72° 54° 53
%
10
mi
1026.1
mb
Calm 0.00"
12:55 PM 72° 54° 53
%
10
mi
1026.1
mb
SE
130°
6
mph
0.00"
12:35 PM 70° 54° 56
%
10
mi
1026.4
mb
ESE
120°
5
mph
0.00"
12:15 PM 70° 54° 56
%
10
mi
1026.8
mb
SE
140°
5
mph
0.00"
11:55 AM 68° 55° 64
%
10
mi
1026.8
mb
Calm 0.00"
11:35 AM 68° 55° 64
%
10
mi
1027.1
mb
ESE
110°
7
mph
0.00"
11:15 AM 66° 55° 68
%
10
mi
1027.1
mb
ESE
120°
6
mph
0.00"
10:55 AM 66° 54° 64
%
10
mi
1027.1
mb
SE
130°
6
mph
0.00"
10:35 AM 66° 54° 64
%
10
mi
1027.1
mb
Calm 0.00"
10:15 AM 66° 54° 64
%
10
mi
1027.1
mb
SE
130°
8
mph
0.00"
9:55 AM 64° 54° 68
%
10
mi
1027.1
mb
ESE
120°
7
mph
0.00"
9:35 AM 64° 55° 73
%
10
mi
1027.1
mb
ESE
120°
7
mph
0.00"
9:15 AM 63° 55° 77
%
10
mi
1027.1
mb
Calm 0.00"
8:55 AM 59° 57° 94
%
10
mi
1027.1
mb
Calm 0.00"
8:35 AM 59° 57° 94
%
10
mi
1027.4
mb
Calm 0.00"
8:15 AM 59° 57° 94
%
10
mi
1027.4
mb
Calm 0.00"
7:55 AM 59° 57° 94
%
10
mi
1027.4
mb
Calm 0.00"
7:35 AM 59° 59° 100
%
10
mi
1027.1
mb
Calm 0.00"
7:15 AM 59° 57° 94
%
10
mi
1026.8
mb
Calm 0.00"
6:55 AM 59° 59° 100
%
10
mi
1026.4
mb
Calm 0.00"
6:35 AM 57° 57° 100
%
10
mi
1026.1
mb
Calm 0.00"
6:15 AM 57° 57° 100
%
10
mi
1025.7
mb
Calm 0.00"
5:55 AM 57° 57° 100
%
10
mi
1025.4
mb
Calm 0.00"
5:35 AM 57° 57° 100
%
10
mi
1025.1
mb
Calm 0.00"
5:15 AM BR 55° 55° 100
%
1
mi
1025.1
mb
Calm 0.00"
4:55 AM BR 57° 57° 100
%
mi
1025.1
mb
Calm 0.00"
4:35 AM 57° 57° 100
%
8
mi
1025.1
mb
Calm 0.00"
4:15 AM 57° 57° 100
%
9
mi
1025.1
mb
Calm 0.00"